Location: Hradec Kralove
(50.2170°N, 15.8330°E)
Time: 04:26:28
(UTC+01:00)

N. Korean satellite - Pass Details

Date: 09 December 2022
Orbit: 407 x 441 km, 97.3° (Epoch: 05 February)

Event Time Altitude Azimuth Distance (km) Brightness Sun altitude
Rises 05:48:02 0° 8° (N) 2,512 10.1 -17.5°
Reaches altitude 10° 05:50:08 10° 3° (N) 1,624 9.1 -17.1°
Maximum altitude 05:53:30 47° 288° (WNW) 616 6.6 -16.6°
Drops below altitude 10° 05:56:47 10° 214° (SW) 1,583 9.0 -16.1°
Sets 05:58:49 0° 208° (SSW) 2,439 10.0 -15.8°
